Regional Weather Roundup
Issued by NWS

Home | Current Version | Previous Version | Text Only | Print | Product List | Glossary On
Versions: 1 2 3 4 5 6 7 8 9 10 11 12 13 14 15 16 17 18 19 20 21 22 23 24 25 26 27 28 29 30 31 32 33 34 35 36 37 38 39 40 41 42 43 44 45 46 47 48 49 50
000
ASUS43 KLSX 221559
RWRMO

WEATHER SUMMARY FOR MISSOURI
NATIONAL WEATHER SERVICE SPRINGFIELD MO
1100 AM CDT WED OCT 22 2014

NOTE: "FAIR" INDICATES FEW OR NO CLOUDS BELOW 12,000 FEET WITH NO
       SIGNIFICANT WEATHER AND/OR OBSTRUCTIONS TO VISIBILITY.
       CURRENT SKY AND/OR WEATHER CONDITIONS ARE NOT AVAILABLE FOR
       CHILLICOTHE AND FARMINGTON.

MOZ001>031-035>038-043-044-053-054-221700-
...NORTHERN AND WESTERN MISSOURI...

CITY           SKY/WX    TMP DP  RH WIND       PRES   REMARKS
KANSAS CTY INT PTSUNNY   59  48  67 SE12      30.19S
KANSAS C DTWN  PTSUNNY   61  48  62 SE5       30.20S
LEE`S SUMMIT   CLOUDY    59  47  64 SE9       30.22S
ST JOSEPH      MOSUNNY   60  47  61 SE12      30.18F
CHILLICOTHE      N/A     58  46  64 SE9       30.26S
KIRKSVILLE     SUNNY     54  46  74 SE13      30.29S

$$
MOZ066>068-077>081-088>096-101>105-221700-
...SOUTHWEST MISSOURI...

CITY           SKY/WX    TMP DP  RH WIND       PRES   REMARKS
SPRINGFIELD    SUNNY     60  46  59 S15       30.25S
JOPLIN         MOSUNNY   65  52  62 SE9       30.21S

$$
MOZ032>034-039>042-045>050-055>058-069>072-221700-
...CENTRAL MISSOURI...

CITY           SKY/WX    TMP DP  RH WIND       PRES   REMARKS
COLUMBIA       SUNNY     55  44  66 SE9       30.29S
JEFFERSON CITY SUNNY     56  42  59 SE8       30.30S
ROLLA          SUNNY     55  43  63 SE8       30.28R
SEDALIA        SUNNY     61  47  59 SE8       30.26F
OSAGE BEACH    SUNNY     57  43  58 S7        30.28F

$$
MOZ051-052-059>065-221700-
...EAST CENTRAL MISSOURI...

CITY           SKY/WX    TMP DP  RH WIND       PRES   REMARKS
ST LOUIS INTL  SUNNY     54  43  66 SE7       30.33S
SPIRIT OF STL  SUNNY    N/A N/A N/A SE6       30.32S
ST CHARLES     SUNNY     53  44  71 E5        30.33S

$$
MOZ072>076-082>087-097>100-106>115-221700-
...SOUTH CENTRAL AND SOUTHEAST MISSOURI...

CITY           SKY/WX    TMP DP  RH WIND       PRES   REMARKS
CAPE GIRARDEAU SUNNY     58  46  64 NE3       30.31R
FARMINGTON     SUNNY     54  45  71 E6        30.33S
POPLAR BLUFF   SUNNY     57  44  62 NE6       30.30R
WEST PLAINS    MOSUNNY   56  42  59 SE6       30.30S

$$



USA.gov is the U.S. government's official web portal to all federal, state and local government web resources and services.